sat.trackr.live / text

‹ back to catalog

STARLINK-37294

NORAD 68559 · 2026-070T

PAYLOAD ACTIVE UNKNOWN

§ Identity

Operator
Country
US
Launch date
2026-04-02
Launch site
AFETR
Launch vehicle
Mass (kg)
RCS (m²)

Purposes: comms

External: N2YO · Heavens-Above · Gunter

§ Orbital elements

Epoch: 2026-09-19T06:56:32.150400Z

Period
93.85 min
Inclination
53.1578°
Eccentricity
0.0001231
Mean motion
15.34412432 rev/d
Perigee alt
461.8 km
Apogee alt
463.5 km
Semi-major
6,840.8 km
B*
4.3269e-4
RAAN
179.2203°
Arg perigee
102.3958°
Mean anomaly
257.7183°
Rev number
2,625

§ Raw data

STARLINK-372941 68559U 26070T   26262.28926100  .00014277  00000+0  43269-3 0  99912 68559  53.1578 179.2203 0001231 102.3958 257.7183 15.34412432 26250

JSON: /api/v1/satellites/68559 · /tle

For live sub-satellite position, see the globe view (requires WebGL).

§ Visibility from observer

Set your observer location to see the next 7 days of passes ≥ 10°. The values pass through the URL so the page stays shareable.

No JS? Fill the form by hand. The geolocation button needs JavaScript.